Regional Weather Roundup
Issued by NWS Little Rock, AR

Home | Current Version | Previous Version | Graphics & Text | Print | Product List | Glossary On
Versions: 1 2 3 4 5 6 7 8 9 10 11 12 13 14 15 16 17 18 19 20 21 22 23 24 25 26 27 28 29 30 31 32 33 34 35 36 37 38 39 40 41 42 43 44 45 46 47 48 49 50
806
ASUS44 KLZK 291105
RWRLZK

WEATHER ROUNDUP FOR ARKANSAS
NATIONAL WEATHER SERVICE LITTLE ROCK AR
600 AM CDT SUN MAY 29 2016

NOTE: "FAIR" INDICATES FEW OR NO CLOUDS BELOW 12,000 FEET WITH NO
SIGNIFICANT WEATHER AND/OR OBSTRUCTIONS TO VISIBILITY.

ARZ001-003-010-029-291200-
NORTHWEST ARKANSAS

CITY           SKY/WX    TMP DP  RH WIND       PRES   REMARKS
FAYETTEVILLE   CLOUDY    60  60 100 CALM      30.11S FOG
FORT SMITH     MOCLDY    68  65  90 CALM      30.09R
HARRISON       CLEAR     63  62  97 CALM      30.12R
BENTONVILLE    CLOUDY    63  59  88 CALM      30.11S
ROGERS           N/A     63  62  97 CALM      30.12R
SILOAM SPGS    CLOUDY    63  55  77 SE5       30.11R
HIGHFILL       CLOUDY    61  61 100 CALM      30.11R
SPRINGDALE     CLEAR     64  64 100 CALM      30.13  FOG
$$

ARZ004-005-016-291200-
NORTH CENTRAL ARKANSAS

CITY           SKY/WX    TMP DP  RH WIND       PRES   REMARKS
BATESVILLE     CLEAR     66  64  94 CALM      30.10R
FLIPPIN        CLEAR    N/A N/A N/A SW3       30.07R
MTN HOME       CLEAR     65  64  97 CALM      30.09R FOG
$$

ARZ040-041-291200-
WEST CENTRAL ARKANSAS

CITY           SKY/WX    TMP DP  RH WIND       PRES   REMARKS
MENA           CLOUDY    66  64  94 CALM      30.12R
MOUNT IDA      CLOUDY    64  62  93 CALM      30.08R FOG
$$

ARZ009-017-025-026-028-291200-
NORTHEAST ARKANSAS

CITY           SKY/WX    TMP DP  RH WIND       PRES   REMARKS
CORNING        FOG       66  66 100 CALM      30.08R VSB<1/4
JONESBORO      PTCLDY    66  64  93 CALM      30.08R FOG
NEWPORT        CLEAR     68  68 100 CALM      30.10R
WALNUT RIDGE   CLEAR     66  63  88 SW3       30.08R
BLYTHEVILLE    PTCLDY    69  67  93 S3        30.09R
$$

ARZ022-023-033-042-044-291200-
CENTRAL ARKANSAS

CITY           SKY/WX    TMP DP  RH WIND       PRES   REMARKS
LITTLE ROCK    MOCLDY    68  65  90 CALM      30.10R
N LITTLE ROCK    N/A     68  66  94 CALM      30.08R
JACKSONVILLE   CLOUDY    65  65  99 CALM      30.09R
SEARCY         CLEAR     64  64 100 CALM      30.11R VSB<1/4
HOT SPRINGS    MOCLDY    66  64  93 CALM      30.10R FOG
RUSSELLVILLE   CLOUDY    64  63  96 CALM      30.10R FOG
CLINTON        CLOUDY    63  63 100 CALM      30.11R FOG
$$

ARZ036-291200-
EAST ARKANSAS

CITY           SKY/WX    TMP DP  RH WIND       PRES   REMARKS
WEST MEMPHIS   CLEAR     68  67  96 SW3       30.10R FOG
$$

ARZ050-053-066-070-073-291200-
SOUTHWEST ARKANSAS

CITY           SKY/WX    TMP DP  RH WIND       PRES   REMARKS
ARKADELPHIA    FAIR      65  65 100 NE3       30.09S
CAMDEN         CLOUDY    64  63  94 CALM      30.08S FOG
TEXARKANA      CLOUDY    71  68  90 S3        30.07S
EL DORADO      MOCLDY    65  64  97 CALM      30.07F
DE QUEEN       CLOUDY    66  66 100 CALM      30.05S FOG
$$

ARZ056-057-069-291200-
SOUTHEAST ARKANSAS

CITY           SKY/WX    TMP DP  RH WIND       PRES   REMARKS
PINE BLUFF     MOCLDY    66  64  93 E3        30.10R FOG
STUTTGART      MOCLDY    70  64  83 NW5       30.10R
MONTICELLO     CLOUDY    66  64  93 CALM      30.09R

$$






USA.gov is the U.S. government's official web portal to all federal, state and local government web resources and services.